Back to catalog

STARLINK-31457

AliveCommunicationsVLEO
NORAD 59414·PAYLOAD·🇺🇸 United States

Launched Apr 5, 2024 from Cape Canaveral Space Force Station

Loading…

Next Passes (next 24 hours)

TLE

FreshSource: CelesTrak SupGP

Epoch: Sep 14, 2026, 22:23 UTC

1 59414C 24064S   26257.93312500  .00060840  00000+0  22029-2 0  2575
2 59414  43.0043  60.5760 0001646 286.3502 193.1943 15.27559123    17

Track STARLINK-31457 in real time with AllMySat

Download on the App Store